星链-32657 (STARLINK-32657)

导读 | 豆包AI

STARLINK-32657是美国SpaceX公司星链星座的卫星,于2024年12月31日发射。作为星链全球卫星互联网组网计划的一部分,它将加入近地轨道,与其他星链卫星共同提供高速、低延迟的宽带互联网服务,进一步扩大星链星座规模,提升全球覆盖能力,延续SpaceX年度密集发射的商业航天成果。

基本信息
目录编号:
62475
目录名称:
STARLINK-32657
国际标识:
2024-254P
轨道中心:
EARTH
卫星名称:
星链-32657
卫星全名:
星链-32657 (STARLINK-32657)
卫星状态:
在轨 (已飞行484 天)
发射日期:
2024-12-31 UTC
国别 :
美国 (US)
星等 :
--
轨道信息
数据来源 国际轨道数据
星历时间: 2026-04-29T14:58:26+0800
16小时前
查看轨道信息
半长轴: 6861.19km
偏心率: 0.000179
轨道倾角: 42.999°
近地点辐角 276.651°
升交点赤经 93.903°
平近点角 83.413°
近地点: 481.824km
远地点: 484.282km
周期: 94.267分钟
每日圈数: 15.275788
详细信息
固有亮度:
5
最大亮度:
2.5
卫星平台:
Starlink V1.0
覆盖范围:
全球
运营商:
太空探索技术公司
运营商所在国:
美国
制造商(研发单位):
太空探索技术公司
制造商所在国:
美国
使用方式:
暂无
卫星简介
Starlink 计划是 SpaceX 推出的全球卫星互联网项目,通过发射低轨道卫星,为全球尤其是偏远地区提供高速、低延迟的互联网服务。自 2019 年起,Starlink 已部署数千颗卫星,旨在缩小全球数字鸿沟,推动互联网普及。该项目还为军事、航空等行业提供通信支持,带来广泛经济效益。
2D轨道图
3D轨道图
轨道高度分析图
轨道倾角分析图
轨道综合分析图
查看轨道综合分析图